Weather History for Ireland West Airport Knock, Ireland

Change the Weather History Date:

Monday, November 26, 2012

  Actual Average Record
Temperature  
Mean Temperature 38 °F -  
Max Temperature 44 °F - - ()
Min Temperature 32 °F - - ()
Degree Days  
Heating Degree Days 27    
Moisture  
Dew Point 39 °F    
Average Humidity 90    
Maximum Humidity 100    
Minimum Humidity 81    
Precipitation  
Precipitation 0.16 in - - ()
Sea Level Pressure  
Sea Level Pressure 29.86 in    
Wind  
Wind Speed 12 mph ()    
Max Wind Speed 23 mph    
Max Gust Speed 46 mph    
Visibility 6.8 miles    
Events Rain    
T = Trace of Precipitation, MM = Missing Value Source: Averaged Metar Reports

Daily Weather History Graph

Daily Weather History Graph

Search for Another Location

Airport:

Trip Planner

Search our weather history database for the weather conditions in past years. The results will help you decide how hot, cold, wet, or windy it might be!

Date:

Astronomy

Nov. 26, 2012 Rise Set
Actual Time 8:22 AM GMT 4:21 PM GMT
Civil Twilight 7:41 AM GMT 5:03 PM GMT
Nautical Twilight 6:56 AM GMT 5:47 PM GMT
Astronomical Twilight 6:14 AM GMT 6:30 PM GMT
Moon 3:15 PM GMT (11/26) 6:08 AM GMT (11/26)
Length of Visible Light 9h 21m
Length of Day
7h 59m
Waxing Gibbous, 96% of the Moon is Illuminated
Nov 26
Waxing Gibbous
Nov 28
Full
Dec 6
Last Quarter
Dec 13
New
Dec 20
First Quarter

Hourly Weather History & Observations

Time (GMT) Temp. Windchill Dew Point Humidity Pressure Visibility Wind Dir Wind Speed Gust Speed Precip Events Conditions
12:00 AM 36 °F - 35 °F 93% 29.69 in - North 8.9 mph - -  
6:00 AM 41 °F - 39 °F 89% 29.78 in 19 mi North 11.2 mph - - Rain Light Rain Showers
6:00 AM 41.0 °F 34.3 °F 39.2 °F 93% 29.74 in 6.2 mi North 11.5 mph - N/A   Scattered Clouds
6:30 AM 39.2 °F 33.6 °F 39.2 °F 100% 29.77 in 6.2 mi North 8.1 mph - N/A   Scattered Clouds
7:00 AM 41.0 °F 35.2 °F 37.4 °F 87% 29.77 in 6.2 mi North 9.2 mph - N/A Rain Light Rain Showers
7:30 AM 41.0 °F 35.2 °F 39.2 °F 93% 29.77 in 6.2 mi North 9.2 mph - N/A   Mostly Cloudy
8:00 AM 41.0 °F 33.5 °F 39.2 °F 93% 29.80 in 6.2 mi NNW 13.8 mph 27.6 mph N/A Rain Light Rain Showers
8:30 AM 41.0 °F 31.6 °F 39.2 °F 93% 29.80 in 5.6 mi North 20.7 mph 34.5 mph N/A Rain Light Rain Showers
9:00 AM 41.0 °F 33.5 °F 39.2 °F 93% 29.83 in 6.2 mi North 13.8 mph - N/A   Mostly Cloudy
9:30 AM 42.8 °F 35.1 °F 41.0 °F 93% 29.83 in 5.6 mi North 16.1 mph 27.6 mph N/A   Mostly Cloudy
10:00 AM 41.0 °F 31.1 °F 41.0 °F 100% 29.86 in 6.2 mi North 23.0 mph 46.0 mph N/A Rain Light Rain Showers
10:30 AM 41.0 °F 34.3 °F 41.0 °F 100% 29.86 in 6.2 mi North 11.5 mph - N/A Rain Light Rain Showers
11:00 AM 41.0 °F 33.1 °F 41.0 °F 100% 29.86 in 6.2 mi North 15.0 mph - N/A   Mostly Cloudy
11:30 AM 41.0 °F 33.5 °F 39.2 °F 93% 29.89 in 6.2 mi North 13.8 mph - N/A Rain Light Rain Showers
12:00 PM 42 °F - 40 °F 88% 29.91 in 4 mi North 15.7 mph - - Rain Light Rain Showers
12:00 PM 42.8 °F 35.1 °F 39.2 °F 87% 29.89 in 4.3 mi North 16.1 mph 29.9 mph N/A Rain Light Rain Showers
12:30 PM 42.8 °F 34.0 °F 39.2 °F 87% 29.89 in 6.2 mi NNW 20.7 mph 32.2 mph N/A   Partly Cloudy
1:00 PM 44.6 °F 36.6 °F 39.2 °F 81% 29.89 in 5.6 mi NNW 19.6 mph 32.2 mph N/A Rain Light Rain Showers
1:30 PM 44.6 °F 35.9 °F 39.2 °F 81% 29.89 in 6.2 mi NNW 23.0 mph - N/A   Scattered Clouds
2:00 PM 42.8 °F 33.8 °F 39.2 °F 87% 29.89 in 6.2 mi NNW 21.9 mph 38.0 mph N/A   Partly Cloudy
2:30 PM 42.8 °F 34.3 °F 37.4 °F 81% 29.89 in 6.2 mi NNW 19.6 mph - N/A   Partly Cloudy
3:00 PM 42.8 °F 34.5 °F 37.4 °F 81% 29.89 in 6.2 mi NNW 18.4 mph 31.1 mph N/A   Partly Cloudy
3:30 PM 42.8 °F 35.1 °F 39.2 °F 87% 29.92 in 6.2 mi NNW 16.1 mph - N/A   Partly Cloudy
4:00 PM 42.8 °F 35.8 °F 39.2 °F 87% 29.92 in 6.2 mi NNW 13.8 mph - N/A Rain Light Rain Showers
4:30 PM 42.8 °F 35.1 °F 37.4 °F 81% 29.95 in 6.2 mi NNW 16.1 mph - N/A   Scattered Clouds
5:00 PM 41.0 °F 33.5 °F 37.4 °F 87% 29.95 in 6.2 mi NNW 13.8 mph - N/A   Scattered Clouds
6:00 PM 40 °F - 37 °F 84% 29.99 in 16 mi NNW 15.7 mph - -   Partly Cloudy